sat.trackr.live / text

‹ back to catalog

ONEWEB-0326

NORAD 49195 · 2021-083K

PAYLOAD ACTIVE UNKNOWN

§ Identity

Operator
Country
UK
Launch date
2021-09-14
Launch site
TYMSC
Launch vehicle
Mass (kg)
RCS (m²)

Purposes: comms

External: N2YO · Heavens-Above · Gunter

§ Orbital elements

Epoch: 2026-05-25T02:05:54.687264Z

Period
109.20 min
Inclination
87.9168°
Eccentricity
0.0002118
Mean motion
13.18685101 rev/d
Perigee alt
1,188.1 km
Apogee alt
1,191.3 km
Semi-major
7,567.9 km
B*
1.1787e-5
RAAN
340.0526°
Arg perigee
88.7519°
Mean anomaly
271.3856°
Rev number
22,695

§ Raw data

ONEWEB-03261 49195U 21083K   26145.08743851  .00000018  00000+0  11787-4 0  99922 49195  87.9168 340.0526 0002118  88.7519 271.3856 13.18685101226959

JSON: /api/v1/satellites/49195 · /tle

For live sub-satellite position, see the globe view (requires WebGL).

§ Visibility from observer

Set your observer location to see the next 7 days of passes ≥ 10°. The values pass through the URL so the page stays shareable.

No JS? Fill the form by hand. The geolocation button needs JavaScript.